This is the latest recevied weather packets stored in our database for station/object R2AKT-13. If no packets are shown the sender has not sent any weather packets the latest 10 day(s).
| Time | Temp. | Humidity | Pressure | Rain* | Wind** | Luminosity | Snow |
|---|---|---|---|---|---|---|---|
| 1777919809 | 20.56° C | 38% | 984.3 hPa | - | 1.34 m/s, 188° | - | - |
| 1777919309 | 20.56° C | 37% | 984.2 hPa | - | 0.89 m/s, 199° | - | - |
| 1777918799 | 21.11° C | 37% | 984.3 hPa | - | 0.89 m/s, 198° | - | - |
| 1777918229 | 21.11° C | 37% | 984.4 hPa | - | 0.45 m/s, 218° | - | - |
| 1777917734 | 21.11° C | 37% | 984.4 hPa | - | 0.45 m/s, 225° | - | - |
| 1777917151 | 21.11° C | 36% | 984.3 hPa | - | 0 m/s | - | - |
| 1777916634 | 21.11° C | 36% | 984.3 hPa | - | 0 m/s | - | - |
| 1777916069 | 21.67° C | 36% | 984.3 hPa | - | 0 m/s | - | - |
| 1777915499 | 21.67° C | 36% | 984.3 hPa | - | 0.45 m/s, 265° | - | - |
| 1777914939 | 21.67° C | 36% | 984.3 hPa | - | 0.45 m/s, 247° | - | - |
| 1777914339 | 22.22° C | 36% | 984.3 hPa | - | 0 m/s | - | - |
| 1777913804 | 22.22° C | 35% | 984.2 hPa | - | 0 m/s | - | - |
| 1777913235 | 22.78° C | 35% | 984.2 hPa | - | 0.45 m/s, 261° | - | - |
| 1777912674 | 22.78° C | 34% | 984.2 hPa | - | 0.45 m/s, 261° | - | - |
| 1777912119 | 23.33° C | 34% | 984.2 hPa | - | 0.45 m/s, 277° | - | - |
| 1777911567 | 23.33° C | 34% | 984.1 hPa | - | 0.45 m/s, 265° | - | - |
| 1777911014 | 23.33° C | 34% | 984.2 hPa | - | 0.89 m/s, 264° | - | - |
| 1777910504 | 23.89° C | 33% | 984.1 hPa | - | 0.89 m/s, 237° | - | - |
| 1777909904 | 23.89° C | 33% | 984.1 hPa | - | 0 m/s | - | - |
| 1777909424 | 23.33° C | 34% | 984.1 hPa | - | 0 m/s | - | - |
| 1777908854 | 23.33° C | 34% | 984.1 hPa | - | 0.45 m/s, 266° | - | - |
| 1777908254 | 22.78° C | 35% | 984.2 hPa | - | 0.45 m/s, 255° | - | - |
| 1777907679 | 23.33° C | 34% | 984.2 hPa | - | 0.89 m/s, 255° | - | - |
| 1777907169 | 23.89° C | 33% | 984.3 hPa | - | 0.45 m/s, 149° | - | - |
| 1777906674 | 23.89° C | 32% | 984.2 hPa | - | 1.34 m/s, 112° | - | - |
* Rain since midnight (hover to see other rain measurements)
** Current wind speed in m/s (hover to see current wind gust speed)